GSAT0203 (PRN E26)

Last updated on Mon Jul 22 2024 00:03:08 GMT+0000 (Coordinated Universal Time)

1 40544U 15017A 24202.35118529 -.00000071 00000+0 00000+0 0 9992 2 40544 56.9252 0.5667 0002075 235.3742 124.6116 1.70476025 57322
UTC large
Height (km)
Speed (km/s)
/
Latitude / Longitude
Inclination (degrees)
Orbital Period (minutes)
Azimuth
Elevation
Range (km)
Doppler Factor

Next 0 passes for location: London (51.5072 / 0.1276)

Sorry there are no passes over London.